Regional Weather Roundup
Issued by NWS

Home | Current Version | Previous Version | Graphics & Text | Print | Product List | Glossary On
Versions: 1 2 3 4 5 6 7 8 9 10 11 12 13 14 15 16 17 18 19 20 21 22 23 24 25 26 27 28 29 30 31 32 33 34 35 36 37 38 39 40 41 42 43 44 45 46 47 48 49 50
000
ASUS43 KBIS 232010
RWRND

NORTH DAKOTA REGIONAL WEATHER ROUNDUP
NATIONAL WEATHER SERVICE BISMARCK ND
300 PM CDT TUE AUG 23 2016

NOTE: "FAIR" INDICATES FEW OR NO CLOUDS BELOW 12,000 FEET WITH NO
SIGNIFICANT WEATHER AND/OR OBSTRUCTIONS TO VISIBILITY.


NDZ001>003-009>011-017-232100-
NORTHWEST NORTH DAKOTA

CITY           SKY/WX    TMP DP  RH WIND       PRES   REMARKS
WILLISTON      MOSUNNY   79  39  23 W21G29    29.84R
MINOT          SUNNY     80  41  24 W24G37    29.77R
MINOT AFB      SUNNY     77  42  28 NW23G33   29.76R
$$

NDZ018>021-031>035-040>046-232100-
SOUTHWEST NORTH DAKOTA

CITY           SKY/WX    TMP DP  RH WIND       PRES   REMARKS
BISMARCK       SUNNY     82  40  22 NW18G36   29.78R
DICKINSON      SUNNY     77  29  17 NW18G28   29.86R
GARRISON         N/A     80  39  23 NW22G40   29.79R
HETTINGER ARPT SUNNY     80  34  19 NW24G33   29.89R
$$

NDZ004>008-012>016-024-026-027-054-232100-
NORTHEAST NORTH DAKOTA

CITY           SKY/WX    TMP DP  RH WIND       PRES   REMARKS
GRAND FORKS    PTSUNNY   87  69  54 S15G23    29.65S HX  91
GRND FRKS AFB  PTSUNNY   80  69  67 SW8       29.66F
DEVILS LAKE    MOSUNNY   78  70  76 SW8       29.68R
$$

NDZ022-023-025-028>030-036>039-047>053-232100-
SOUTHEAST NORTH DAKOTA

CITY           SKY/WX    TMP DP  RH WIND       PRES   REMARKS
FARGO          SUNNY     88  67  49 S25G35    29.68S HX  91
JAMESTOWN      CLOUDY    77  69  76 NW20      29.70R
$$





USA.gov is the U.S. government's official web portal to all federal, state and local government web resources and services.